#timestamp,LO_Frequency,Hit,StdDev 
1581728415.6,286047000.3,N
1581728435.4,286047000.6,N
1581728455.3,286047000.1,N
1581728475.1,286047002.2,N
1581728476.0,286047002.2,N
1581728495.8,286047002.2,N
1581728515.7,286047000.1,N
1581728535.5,286047000.1,N
1581728555.4,286046999.7,N
1581728575.2,286047001.0,N
1581728595.0,286047000.0,N
1581728595.9,286047000.0,N
1581728615.8,286047000.1,N
1581728635.6,286047000.6,N
1581728655.5,286047001.9,N
1581728675.3,286047001.6,N
1581728695.1,286047001.3,N
1581728715.9,286047004.1,Y
1581728735.7,286047002.2,P
1581728755.5,286047001.8,N
1581728775.4,286047002.4,P
1581728795.2,286047002.8,Y
1581728815.1,286046996.6,P
1581728816.0,286046996.6,N
1581728835.8,286046999.4,N
1581728855.6,286046998.7,N
1581728875.5,286046998.1,N
1581728895.3,286047000.3,N
1581728915.2,286047000.8,N
1581728935.9,286047000.3,N
1581728955.7,286047000.8,N
1581728975.6,286047002.7,N
1581728995.4,286046998.4,N
1581729015.3,286047000.5,N
1581729035.1,286047002.7,N
1581729036.0,286047002.7,N
1581729055.8,286047001.5,N
1581729075.7,286047001.8,N
1581729095.5,286047001.6,N
1581729115.3,286047003.2,N
1581729135.2,286047005.5,N
1581729155.0,286047001.4,N
1581729155.9,286047001.4,N
1581729175.8,286047002.3,N
1581729195.6,286047002.5,N
1581729215.4,286047004.4,N
1581729235.3,286047004.2,N
1581729255.1,286047003.6,N
1581729275.9,286047005.9,N
1581729295.7,286047003.2,N
1581729315.5,286047003.6,N
1581729335.4,286047004.0,N
1581729355.2,286047004.0,N
1581729375.0,286047001.3,N
1581729375.9,286047001.3,N
1581729395.8,286047003.8,N
1581729415.6,286047005.9,Y
1581729435.5,286047002.1,P
1581729455.3,286047002.4,P
1581729475.1,286047001.6,P
1581729495.9,286047001.7,Y
1581729515.7,286047002.1,P
1581729535.5,286047002.1,P
1581729555.7,286047002.3,P
1581729575.6,286046999.7,Y
1581729595.4,286046996.9,P
1581729615.2,286046996.9,N
1581729635.1,286046998.1,N
1581729636.0,286046998.1,N
1581729655.8,286046998.7,N
1581729675.6,286046999.4,N
1581729695.5,286047001.1,N
1581729715.3,286046998.4,N
1581729735.2,286046996.7,N
1581729755.9,286046997.4,N
1581729775.7,286046999.0,N
1581729795.6,286047001.0,N
1581729815.4,286047000.4,N
1581729835.2,286047002.8,N
1581729855.1,286046999.8,N
1581729856.0,286046999.8,N
1581729875.8,286046998.2,N
1581729895.7,286047000.7,N
1581729915.5,286047000.8,N
1581729935.3,286047000.8,N
1581729955.2,286046996.9,N
1581729975.0,286046997.7,N
1581729975.9,286046997.7,N
1581729995.7,286046997.2,N
1581730015.6,286046999.1,N
1581730035.4,286046998.1,N
1581730055.3,286046996.9,N
1581730075.1,286046997.9,N
1581730076.0,286046997.9,N
1581730095.8,286047000.8,N
1581730115.7,286047000.2,N
1581730135.5,286046998.9,N
1581730155.3,286046998.4,N
1581730175.2,286046997.3,N
1581730195.0,286046996.8,N
1581730195.9,286046996.8,N
1581730215.8,286046998.5,N
1581730235.6,286047000.1,N
1581730255.4,286047002.4,N
1581730275.3,286047001.1,N
1581730295.1,286047000.8,N
1581730315.9,286046998.9,N
1581730335.7,286046999.5,N
1581730355.5,286046996.9,N
1581730375.4,286046999.3,N
1581730395.2,286046999.4,N
1581730415.0,286046999.0,N
1581730415.9,286046999.0,N
1581730435.8,286046998.2,N
1581730455.6,286046996.9,N
1581730475.5,286046997.8,N
1581730495.3,286046996.5,N
1581730515.1,286047000.8,N
1581730535.9,286046997.0,N
1581730555.7,286046999.1,N
1581730575.5,286046999.0,N
1581730595.4,286046996.6,N
1581730615.2,286046999.6,N
1581730635.1,286047000.8,N
1581730636.0,286047000.8,N
1581730655.8,286046996.5,N
1581730675.6,286046997.0,N
1581730695.5,286046996.9,N
1581730715.3,286046999.5,N
1581730735.2,286046995.0,Y
1581730755.9,286046996.6,P
1581730775.7,286046999.9,N
1581730795.6,286047002.7,N
1581730815.4,286047002.0,N
1581730835.2,286047002.2,N
1581730855.1,286047002.3,N
1581730856.0,286047002.3,N
1581730875.8,286046998.8,N
1581730895.7,286046998.3,N
1581730915.5,286046996.9,N
1581730935.3,286046999.7,N
1581730955.2,286047004.4,N
1581730975.0,286047004.1,N
1581730975.9,286047004.1,N
1581730995.8,286047002.5,N
1581731015.6,286047001.3,N
1581731035.4,286047003.2,N
1581731055.3,286047007.5,Y
1581731075.1,286047003.6,P
1581731095.8,286047002.8,N
1581731115.7,286047002.2,N
1581731135.5,286047002.8,Y
1581731155.4,286046999.6,P
1581731175.2,286046998.7,N
1581731195.0,286047001.1,N
1581731195.9,286047001.1,N
1581731215.8,286046999.2,N
1581731235.6,286046996.9,N
1581731255.5,286046999.4,N
1581731275.3,286046997.3,N
1581731295.1,286046995.4,N
1581731315.9,286046997.9,N
1581731335.7,286046999.0,N
1581731355.5,286047000.5,N
1581731375.4,286047001.0,N
1581731395.2,286046999.4,N
1581731415.1,286046998.3,N
1581731416.0,286046998.3,N
1581731435.8,286046998.1,N
1581731455.6,286046997.0,N
1581731475.5,286046996.6,N
1581731495.3,286046997.7,N
1581731515.1,286046997.6,N
1581731535.9,286046997.7,N
1581731555.7,286046997.3,N
1581731575.6,286046997.5,N
1581731595.4,286046997.0,N
1581731615.2,286046995.1,Y
1581731635.1,286046999.1,P
1581731636.0,286046999.1,P
1581731655.8,286046999.2,P
1581731675.7,286046995.1,Y
1581731695.5,286046996.7,P
1581731715.3,286046997.9,N
1581731735.2,286046998.3,N
1581731755.0,286046998.1,N
1581731755.9,286046998.1,N
1581731775.7,286046999.8,N
1581731795.6,286047000.2,N
1581731815.4,286047002.7,N
1581731835.3,286046999.7,N
1581731855.1,286047000.0,N
1581731856.0,286047000.0,N
1581731875.8,286046999.9,N
1581731895.7,286046998.6,N
1581731915.5,286046998.8,N
1581731935.4,286046998.8,N
1581731955.2,286047002.4,N
1581731975.0,286047001.6,N
1581731975.9,286047001.6,N
1581731995.8,286047002.5,N
